TimeEST,TemperatureF,Dew PointF,Humidity,Sea Level PressureIn,VisibilityMPH,Wind Direction,Wind SpeedMPH,Gust SpeedMPH,PrecipitationIn,Events,Conditions,WindDirDegrees,DateUTC
12:53 AM,60.1,57.0,90,30.13,10.0,SSW,8.1,-,N/A,,Overcast,200,2012-11-13 05:53:00
1:53 AM,60.1,57.0,90,30.12,10.0,SSW,6.9,-,N/A,,Overcast,210,2012-11-13 06:53:00
2:53 AM,61.0,57.9,90,30.11,10.0,SSW,6.9,-,N/A,,Mostly Cloudy,200,2012-11-13 07:53:00
3:11 AM,55.4,50.0,82,30.16,10.0,NW,19.6,29.9,N/A,,Overcast,310,2012-11-13 08:11:00
3:17 AM,53.6,48.2,82,30.17,6.0,NNW,17.3,29.9,0.03,Rain,Light Rain,340,2012-11-13 08:17:00
3:53 AM,50.0,46.0,86,30.17,10.0,NNW,13.8,23.0,0.07,,Overcast,340,2012-11-13 08:53:00
4:04 AM,50.0,46.4,87,30.19,10.0,NNW,12.7,-,N/A,,Overcast,330,2012-11-13 09:04:00
4:53 AM,48.9,45.0,86,30.19,10.0,North,11.5,19.6,0.02,Rain,Light Rain,350,2012-11-13 09:53:00
5:53 AM,46.9,44.1,90,30.21,10.0,NNW,10.4,-,0.03,,Overcast,340,2012-11-13 10:53:00
6:53 AM,46.0,42.1,86,30.26,10.0,NNW,12.7,20.7,N/A,,Overcast,340,2012-11-13 11:53:00
7:29 AM,46.4,42.8,87,30.30,9.0,NNW,9.2,-,0.00,Rain,Light Rain,340,2012-11-13 12:29:00
7:53 AM,45.0,42.1,90,30.28,6.0,NNW,9.2,-,0.00,Rain,Light Rain,340,2012-11-13 12:53:00
8:02 AM,44.6,42.8,93,30.29,5.0,North,9.2,-,0.01,Rain,Light Rain,350,2012-11-13 13:02:00
8:12 AM,44.6,42.8,93,30.29,4.0,North,6.9,-,0.02,Rain,Light Rain,350,2012-11-13 13:12:00
8:19 AM,44.6,42.8,93,30.30,5.0,NNW,8.1,-,0.03,Rain,Rain,340,2012-11-13 13:19:00
8:40 AM,44.6,42.8,93,30.31,5.0,NNW,5.8,-,0.05,Rain,Light Rain,330,2012-11-13 13:40:00
8:53 AM,45.0,42.1,90,30.30,4.0,NNW,5.8,-,0.06,Rain,Light Rain,340,2012-11-13 13:53:00
9:09 AM,44.6,41.0,87,30.31,9.0,North,6.9,-,0.01,Rain,Light Rain,350,2012-11-13 14:09:00
9:53 AM,45.0,41.0,86,30.30,10.0,NNW,8.1,-,0.02,Rain,Light Rain,330,2012-11-13 14:53:00
10:14 AM,44.6,41.0,87,30.33,10.0,NNW,5.8,-,0.00,Rain,Light Rain,340,2012-11-13 15:14:00
10:53 AM,45.0,39.9,82,30.32,10.0,North,10.4,-,0.00,,Overcast,350,2012-11-13 15:53:00
11:53 AM,44.1,37.9,79,30.32,10.0,North,8.1,-,0.01,Rain,Light Rain,360,2012-11-13 16:53:00
12:13 PM,44.6,37.4,76,30.31,9.0,North,10.4,-,0.01,Rain,Light Rain,10,2012-11-13 17:13:00
12:46 PM,44.6,37.4,76,30.31,10.0,North,6.9,-,0.01,,Overcast,360,2012-11-13 17:46:00
12:53 PM,45.0,39.0,80,30.30,10.0,North,8.1,-,0.01,,Overcast,360,2012-11-13 17:53:00
1:38 PM,44.6,37.4,76,30.32,10.0,North,8.1,-,N/A,,Scattered Clouds,360,2012-11-13 18:38:00
1:53 PM,45.0,37.0,74,30.31,10.0,North,5.8,-,N/A,,Scattered Clouds,350,2012-11-13 18:53:00
2:53 PM,46.0,37.0,71,30.30,10.0,North,4.6,-,N/A,,Mostly Cloudy,350,2012-11-13 19:53:00
3:53 PM,46.9,34.0,61,30.31,10.0,NNE,5.8,-,N/A,,Clear,20,2012-11-13 20:53:00
4:53 PM,44.1,33.1,65,30.34,10.0,North,8.1,-,N/A,,Clear,350,2012-11-13 21:53:00
5:53 PM,44.1,30.9,60,30.35,10.0,North,9.2,-,N/A,,Overcast,10,2012-11-13 22:53:00
6:53 PM,44.1,30.0,58,30.39,10.0,North,10.4,-,N/A,,Overcast,360,2012-11-13 23:53:00
7:53 PM,42.1,28.0,58,30.40,10.0,NNE,13.8,19.6,N/A,,Mostly Cloudy,20,2012-11-14 00:53:00
8:53 PM,37.9,28.0,68,30.43,10.0,North,10.4,19.6,N/A,,Clear,360,2012-11-14 01:53:00
9:53 PM,37.9,27.0,65,30.43,10.0,North,6.9,-,N/A,,Clear,360,2012-11-14 02:53:00
10:53 PM,37.0,26.1,65,30.43,10.0,North,8.1,-,N/A,,Clear,360,2012-11-14 03:53:00
11:53 PM,37.0,26.1,65,30.44,10.0,North,8.1,-,N/A,,Clear,360,2012-11-14 04:53:00